User: anonymous   Login
Location: Unspecified
(0.0000°N, 0.0000°E)
Time: 16:37:53
(UTC+00:00)
Language:

GONETS D1M 1 - Orbit

View from above orbital plane
View from above orbital plane
View from above satellite
View from above satellite

Ground track
Ground track

The orbit data is extracted from the following two-line orbital elements,

1 28908U 05048A   17204.53487278 +.00000026 +00000-0 +96195-4 0  9994
2 28908 082.4659 226.0841 0006241 215.1915 298.8643 12.55478573530974
Epoch (UTC): 23 July 2017 12:50:13
Eccentricity: 0.0006241
inclination: 82.4659°
perigee height: 1437 km
apogee height: 1446 km
right ascension of ascending node: 226.0841°
argument of perigee: 215.1915°
revolutions per day: 12.55478573
mean anomaly at epoch: 298.8643°
orbit number at epoch: 53097

The dashed part of the orbit path shows where the satellite is in the earth's shadow,  

DLR